Starlink 2534

operational
NORAD ID: 48311 Int'l Des: 2021-036 Owner: SPXS Country: US Constellation: starlink
LEOCIRCULAR

关于 Starlink 2534

正在加载描述...

实时位置

正在加载3D地球...

即将过境

高度历史

Altitude vs Time

uPlot chart will show altitude changes over time

两行轨道根数

1 48311U 21036AM 26062.44737276 .00061904 00000-0 21057-2 0 9992
2 48311 53.1593 117.6256 0001307 83.2442 276.8708 15.29878124267265
Epoch: Mar 3, 2026 • Age: 35 hours

当前状态

高度 490.0 km
速度 7.62 km/s
星下点 -40.65°S, 1.31°E
发射日期 Apr 29, 2021
运行时间 4.8 years
类型 internet

技术详情

分类 Payload
质量 260.00 kg
干质量 248.00 kg
总质量 260.00 kg
长度 0.20 m
直径 2.80 m
跨度 9.00 m
形状 Box + pan
制造商 SPXS
平台类型 Starlink
阶段状态 In Orbit
所有者/国家 SPXS/US

大型星座

Loading constellations...